Content
SEND FEEDBACK

Daily
Averages
Monthly
Summary
United States of America

MALDEN, MISSOURI


Home > North America > United States > Missouri
Elevation: 295 feet     Latitude: 36 36N     Longitude: 089 59W

WEATHER
 
SELECT A DAY
Number of Records: 212,807;   Date Range: 1/1/95 - 12/23/14
 
SHARE

PRINT THIS DATA

[ ← Previous Day ]
WEATHER ALMANAC - OCTOBER 11, 2013
[ Next Day → ]
[ °C ]   °F
Weather ElementAverageHighLow
Temperature63.7 °F80.1 °F (2:53 pm)51.8 °F (7:23 am)
Dewpoint56.5 °F61 °F (10:53 am)50 °F (6:53 am)
Humidity80.2 %94 % (7:23 am)45 % (3:53 pm)
Barometer30.00 in30.06 in (9:38 am)29.93 in (5:53 pm)
Wind Speed1.9 mph12.7 mph (2:53 pm)
Weather ElementAverage
Visibility6.6 mi
Wind DirectionNE (44.8 °)

Weather ElementTotal
Precipitation---
Cooling Degree Days0.9 (Base 65)
Growing Degree Days16 (Base 50)
Averaged from 31 records on October 11, 2013
WEATHER CONDITIONS BREAKOUT
WIND DIRECTION BREAKOUT
WEATHER BY HOUR - OCTOBER 11, 2013
[ °C ]   °F
Local TimeTemperatureDewpointHumidityBarometerVisibilityWind DirectionWind SpeedGust SpeedPrecipitationEventsConditions
12:53 AM55.9 °F53.1 °F90 %30.00 in8.0 miCalmClear
1:53 AM55.9 °F53.1 °F90 %30.00 in9.0 miCalmClear
2:53 AM55.0 °F52.0 °F89 %30.00 in8.0 miCalmClear
3:53 AM55.0 °F52.0 °F89 %30.00 in8.0 miCalmClear
4:53 AM55.0 °F53.1 °F93 %30.01 in7.0 miCalmScattered Clouds
5:53 AM55.0 °F52.0 °F89 %30.02 in6.0 miCalmPartly Cloudy
6:53 AM52.0 °F50.0 °F93 %30.04 in7.0 miCalmClear
7:23 AM51.8 °F50.0 °F94 %30.04 in5.0 miCalmScattered Clouds
7:39 AM53.6 °F51.8 °F94 %30.04 in4.0 miCalmMostly Cloudy
7:53 AM55.0 °F52.0 °F89 %30.04 in5.0 miCalmOvercast
8:01 AM55.4 °F53.6 °F94 %30.04 in1.8 miCalmOvercast
8:14 AM57.2 °F53.6 °F88 %30.05 in0.2 miCalmFogFog
8:53 AM59.0 °F57.0 °F93 %30.05 in0.2 miCalmFogFog
9:26 AM62.6 °F59.0 °F88 %30.05 in0.5 miCalmFogFog
9:38 AM62.6 °F60.8 °F94 %30.06 in1.8 miCalmMostly Cloudy
9:43 AM62.6 °F60.8 °F94 %30.06 in3.0 miCalmMostly Cloudy
9:53 AM64.0 °F60.1 °F87 %30.05 in4.0 miCalmScattered Clouds
10:53 AM72.0 °F61.0 °F68 %30.04 in10.0 miCalmClear
11:53 AM75.9 °F61.0 °F60 %30.03 in10.0 miSW (220°)9.2 mphMostly Cloudy
12:53 PM78.1 °F60.1 °F54 %30.01 in10.0 miWSW (240°)8.1 mphScattered Clouds
1:53 PM79.0 °F59.0 °F50 %29.99 in10.0 miSouth (170°)6.9 mphScattered Clouds
2:53 PM80.1 °F57.9 °F47 %29.96 in10.0 miSSW (200°)12.7 mphPartly Cloudy
3:53 PM80.1 °F57.0 °F45 %29.95 in10.0 miSouth (180°)10.4 mphScattered Clouds
4:53 PM80.1 °F57.9 °F47 %29.94 in10.0 miSouth (190°)5.8 mphClear
5:53 PM77.0 °F59.0 °F54 %29.93 in10.0 miSouth (190°)4.6 mphClear
6:53 PM69.1 °F61.0 °F75 %29.94 in10.0 miCalmClear
7:53 PM66.0 °F61.0 °F84 %29.95 in10.0 miCalmClear
8:53 PM63.0 °F59.0 °F87 %29.96 in8.0 miCalmClear
9:53 PM63.0 °F59.0 °F87 %29.96 in7.0 miCalmMostly Cloudy
10:53 PM62.1 °F59.0 °F90 %29.96 in6.0 miCalmClear
11:53 PM60.1 °F57.0 °F90 %29.97 in6.0 miCalmClear
Hourly data recorded from KPOF, located miles away from Malden, Missouri







STORIES FROM OUR PARTNERS